Year,Month,Day,Hour,Minute,Value (Times are PST for temperature in C)
2019,07,08,00,00,12.80
2019,07,08,00,01,12.80
2019,07,08,00,02,12.80
2019,07,08,00,03,12.80
2019,07,08,00,04,12.80
2019,07,08,00,05,12.70
2019,07,08,00,06,12.70
2019,07,08,00,07,12.70
2019,07,08,00,08,12.70
2019,07,08,00,09,12.70
2019,07,08,00,10,12.70
2019,07,08,00,11,12.70
2019,07,08,00,12,12.70
2019,07,08,00,13,12.70
2019,07,08,00,14,12.70
2019,07,08,00,15,12.70
2019,07,08,00,16,12.70
2019,07,08,00,17,12.70
2019,07,08,00,18,12.70
2019,07,08,00,19,12.70
2019,07,08,00,20,12.70
2019,07,08,00,21,12.70
2019,07,08,00,22,12.80
2019,07,08,00,23,12.80
2019,07,08,00,24,12.80
2019,07,08,00,25,12.80
2019,07,08,00,26,12.80
2019,07,08,00,27,12.80
2019,07,08,00,28,12.80
2019,07,08,00,29,12.90
2019,07,08,00,30,12.90
2019,07,08,00,31,12.90
2019,07,08,00,32,12.90
2019,07,08,00,33,12.90
2019,07,08,00,34,12.90
2019,07,08,00,35,13.00
2019,07,08,00,36,13.00
2019,07,08,00,37,13.00
2019,07,08,00,38,13.00
2019,07,08,00,39,13.10
2019,07,08,00,40,13.10
2019,07,08,00,41,13.10
2019,07,08,00,42,13.10
2019,07,08,00,43,13.10
2019,07,08,00,44,13.10
2019,07,08,00,45,13.10
2019,07,08,00,46,13.10
2019,07,08,00,47,13.10
2019,07,08,00,48,13.10
2019,07,08,00,49,13.10
2019,07,08,00,50,13.10
2019,07,08,00,51,13.10
2019,07,08,00,52,13.10
2019,07,08,00,53,13.10
2019,07,08,00,54,13.10
2019,07,08,00,55,13.10
2019,07,08,00,56,13.10
2019,07,08,00,57,13.10
2019,07,08,00,58,13.10
2019,07,08,00,59,13.10
2019,07,08,01,00,13.10
2019,07,08,01,01,13.10
2019,07,08,01,02,13.10
2019,07,08,01,03,13.10
2019,07,08,01,04,13.10
2019,07,08,01,05,13.10
2019,07,08,01,06,13.10
2019,07,08,01,07,13.10
2019,07,08,01,08,13.10
2019,07,08,01,09,13.10
2019,07,08,01,10,13.10
2019,07,08,01,11,13.10
2019,07,08,01,12,13.00
2019,07,08,01,13,13.00
2019,07,08,01,14,13.10
2019,07,08,01,15,13.10
2019,07,08,01,16,13.00
2019,07,08,01,17,13.10
2019,07,08,01,18,13.00
2019,07,08,01,19,13.10
2019,07,08,01,20,13.00
2019,07,08,01,21,13.00
2019,07,08,01,22,13.00
2019,07,08,01,23,13.00
2019,07,08,01,24,13.00
2019,07,08,01,25,13.00
2019,07,08,01,26,13.00
2019,07,08,01,27,12.90
2019,07,08,01,28,12.90
2019,07,08,01,29,12.90
2019,07,08,01,30,12.90
2019,07,08,01,31,12.90
2019,07,08,01,32,12.90
2019,07,08,01,33,12.80
2019,07,08,01,34,12.80
2019,07,08,01,35,12.80
2019,07,08,01,36,12.80
2019,07,08,01,37,12.80
2019,07,08,01,38,12.80
2019,07,08,01,39,12.70
2019,07,08,01,40,12.70
2019,07,08,01,41,12.70
2019,07,08,01,42,12.70
2019,07,08,01,43,12.70
2019,07,08,01,44,12.70
2019,07,08,01,45,12.70
2019,07,08,01,46,12.60
2019,07,08,01,47,12.70
2019,07,08,01,48,12.60
2019,07,08,01,49,12.60
2019,07,08,01,50,12.60
2019,07,08,01,51,12.60
2019,07,08,01,52,12.60
2019,07,08,01,53,12.60
2019,07,08,01,54,12.60
2019,07,08,01,55,12.60
2019,07,08,01,56,12.60
2019,07,08,01,57,12.60
2019,07,08,01,58,12.60
2019,07,08,01,59,12.60
2019,07,08,02,00,12.60
2019,07,08,02,01,12.60
2019,07,08,02,02,12.50
2019,07,08,02,03,12.50
2019,07,08,02,04,12.60
2019,07,08,02,05,12.60
2019,07,08,02,06,12.60
2019,07,08,02,07,12.60
2019,07,08,02,08,12.60
2019,07,08,02,09,12.50
2019,07,08,02,10,12.50
2019,07,08,02,11,12.50
2019,07,08,02,12,12.50
2019,07,08,02,13,12.50
2019,07,08,02,14,12.50
2019,07,08,02,15,12.50
2019,07,08,02,16,12.40
2019,07,08,02,17,12.40
2019,07,08,02,18,12.40
2019,07,08,02,19,12.40
2019,07,08,02,20,12.40
2019,07,08,02,21,12.40
2019,07,08,02,22,12.40
2019,07,08,02,23,12.40
2019,07,08,02,24,12.40
2019,07,08,02,25,12.40
2019,07,08,02,26,12.40
2019,07,08,02,27,12.40
2019,07,08,02,28,12.30
2019,07,08,02,29,12.30
2019,07,08,02,30,12.40
2019,07,08,02,31,12.40
2019,07,08,02,32,12.40
2019,07,08,02,33,12.40
2019,07,08,02,34,12.40
2019,07,08,02,35,12.40
2019,07,08,02,36,12.40
2019,07,08,02,37,12.40
2019,07,08,02,38,12.30
2019,07,08,02,39,12.30
2019,07,08,02,40,12.30
2019,07,08,02,41,12.30
2019,07,08,02,42,12.30
2019,07,08,02,43,12.30
2019,07,08,02,44,12.30
2019,07,08,02,45,12.30
2019,07,08,02,46,12.30
2019,07,08,02,47,12.30
2019,07,08,02,48,12.30
2019,07,08,02,49,12.30
2019,07,08,02,50,12.30
2019,07,08,02,51,12.30
2019,07,08,02,52,12.30
2019,07,08,02,53,12.20
2019,07,08,02,54,12.20
2019,07,08,02,55,12.20
2019,07,08,02,56,12.20
2019,07,08,02,57,12.20
2019,07,08,02,58,12.20
2019,07,08,02,59,12.20
2019,07,08,03,00,12.20
2019,07,08,03,01,12.20
2019,07,08,03,02,12.20
2019,07,08,03,03,12.20
2019,07,08,03,04,12.20
2019,07,08,03,05,12.20
2019,07,08,03,06,12.10
2019,07,08,03,07,12.20
2019,07,08,03,08,12.10
2019,07,08,03,09,12.10
2019,07,08,03,10,12.10
2019,07,08,03,11,12.10
2019,07,08,03,12,12.10
2019,07,08,03,13,12.10
2019,07,08,03,14,12.10
2019,07,08,03,15,12.10
2019,07,08,03,16,12.10
2019,07,08,03,17,12.10
2019,07,08,03,18,12.10
2019,07,08,03,19,12.10
2019,07,08,03,20,12.10
2019,07,08,03,21,12.10
2019,07,08,03,22,12.10
2019,07,08,03,23,12.10
2019,07,08,03,24,12.10
2019,07,08,03,25,12.10
2019,07,08,03,26,12.10
2019,07,08,03,27,12.10
2019,07,08,03,28,12.00
2019,07,08,03,29,12.00
2019,07,08,03,30,12.00
2019,07,08,03,31,12.00
2019,07,08,03,32,12.00
2019,07,08,03,33,12.00
2019,07,08,03,34,12.00
2019,07,08,03,35,12.00
2019,07,08,03,36,12.00
2019,07,08,03,37,12.00
2019,07,08,03,38,12.00
2019,07,08,03,39,12.00
2019,07,08,03,40,12.00
2019,07,08,03,41,12.00
2019,07,08,03,42,12.00
2019,07,08,03,43,12.00
2019,07,08,03,44,12.00
2019,07,08,03,45,11.90
2019,07,08,03,46,11.90
2019,07,08,03,47,11.90
2019,07,08,03,48,11.90
2019,07,08,03,49,11.90
2019,07,08,03,50,11.90
2019,07,08,03,51,11.90
2019,07,08,03,52,11.90
2019,07,08,03,53,11.90
2019,07,08,03,54,11.90
2019,07,08,03,55,11.90
2019,07,08,03,56,11.90
2019,07,08,03,57,11.90
2019,07,08,03,58,12.00
2019,07,08,03,59,12.00
2019,07,08,04,00,12.00
2019,07,08,04,01,12.00
2019,07,08,04,02,12.00
2019,07,08,04,03,12.00
2019,07,08,04,04,12.10
2019,07,08,04,05,12.10
2019,07,08,04,06,12.10
2019,07,08,04,07,12.10
2019,07,08,04,08,12.10
2019,07,08,04,09,12.10
2019,07,08,04,10,12.10
2019,07,08,04,11,12.10
2019,07,08,04,12,12.10
2019,07,08,04,13,12.10
2019,07,08,04,14,12.20
2019,07,08,04,15,12.20
2019,07,08,04,16,12.20
2019,07,08,04,17,12.20
2019,07,08,04,18,12.20
2019,07,08,04,19,12.20
2019,07,08,04,20,12.20
2019,07,08,04,21,12.20
2019,07,08,04,22,12.20
2019,07,08,04,23,12.20
2019,07,08,04,24,12.20
2019,07,08,04,25,12.30
2019,07,08,04,26,12.30
2019,07,08,04,27,12.30
2019,07,08,04,28,12.30
2019,07,08,04,29,12.30
2019,07,08,04,30,12.30
2019,07,08,04,31,12.30
2019,07,08,04,32,12.30
2019,07,08,04,33,12.30
2019,07,08,04,34,12.30
2019,07,08,04,35,12.30
2019,07,08,04,36,12.30
2019,07,08,04,37,12.30
2019,07,08,04,38,12.40
2019,07,08,04,39,12.40
2019,07,08,04,40,12.40
2019,07,08,04,41,12.40
2019,07,08,04,42,12.40
2019,07,08,04,43,12.40
2019,07,08,04,44,12.40
2019,07,08,04,45,12.40
2019,07,08,04,46,12.40
2019,07,08,04,47,12.40
2019,07,08,04,48,12.40
2019,07,08,04,49,12.40
2019,07,08,04,50,12.50
2019,07,08,04,51,12.50
2019,07,08,04,52,12.50
2019,07,08,04,53,12.50
2019,07,08,04,54,12.50
2019,07,08,04,55,12.50
2019,07,08,04,56,12.50
2019,07,08,04,57,12.60
2019,07,08,04,58,12.60
2019,07,08,04,59,12.60
2019,07,08,05,00,12.60
2019,07,08,05,01,12.60
2019,07,08,05,02,12.60
2019,07,08,05,03,12.60
2019,07,08,05,04,12.60
2019,07,08,05,05,12.60
2019,07,08,05,06,12.60
2019,07,08,05,07,12.60
2019,07,08,05,08,12.60
2019,07,08,05,09,12.60
2019,07,08,05,10,12.60
2019,07,08,05,11,12.60
2019,07,08,05,12,12.60
2019,07,08,05,13,12.70
2019,07,08,05,14,12.70
2019,07,08,05,15,12.70
2019,07,08,05,16,12.70
2019,07,08,05,17,12.70
2019,07,08,05,18,12.70
2019,07,08,05,19,12.70
2019,07,08,05,20,12.70
2019,07,08,05,21,12.70
2019,07,08,05,22,12.70
2019,07,08,05,23,12.70
2019,07,08,05,24,12.70
2019,07,08,05,25,12.70
2019,07,08,05,26,12.70
2019,07,08,05,27,12.70
2019,07,08,05,28,12.70
2019,07,08,05,29,12.70
2019,07,08,05,30,12.70
2019,07,08,05,31,12.70
2019,07,08,05,32,12.70
2019,07,08,05,33,12.70
2019,07,08,05,34,12.80
2019,07,08,05,35,12.80
2019,07,08,05,36,12.80
2019,07,08,05,37,12.80
2019,07,08,05,38,12.80
2019,07,08,05,39,12.80
2019,07,08,05,40,12.80
2019,07,08,05,41,12.80
2019,07,08,05,42,12.80
2019,07,08,05,43,12.80
2019,07,08,05,44,12.80
2019,07,08,05,45,12.80
2019,07,08,05,46,12.80
2019,07,08,05,47,12.80
2019,07,08,05,48,12.80
2019,07,08,05,49,12.80
2019,07,08,05,50,12.80
2019,07,08,05,51,12.80
2019,07,08,05,52,12.80
2019,07,08,05,53,12.80
2019,07,08,05,54,12.80
2019,07,08,05,55,12.80
2019,07,08,05,56,12.80
2019,07,08,05,57,12.90
2019,07,08,05,58,12.90
2019,07,08,05,59,12.90
2019,07,08,06,00,12.90
2019,07,08,06,01,12.90
2019,07,08,06,02,12.90
2019,07,08,06,03,12.90
2019,07,08,06,04,12.90
2019,07,08,06,05,12.90
2019,07,08,06,06,12.90
2019,07,08,06,07,12.90
2019,07,08,06,08,12.90
2019,07,08,06,09,12.90
2019,07,08,06,10,12.90
2019,07,08,06,11,12.90
2019,07,08,06,12,12.90
2019,07,08,06,13,12.90
2019,07,08,06,14,13.00
2019,07,08,06,15,13.00
2019,07,08,06,16,13.00
2019,07,08,06,17,13.00
2019,07,08,06,18,13.00
2019,07,08,06,19,13.00
2019,07,08,06,20,13.00
2019,07,08,06,21,13.00
2019,07,08,06,22,13.00
2019,07,08,06,23,13.00
2019,07,08,06,24,13.00
2019,07,08,06,25,13.10
2019,07,08,06,26,13.10
2019,07,08,06,27,13.10
2019,07,08,06,28,13.10
2019,07,08,06,29,13.10
2019,07,08,06,30,13.10
2019,07,08,06,31,13.10
2019,07,08,06,32,13.10
2019,07,08,06,33,13.10
2019,07,08,06,34,13.00
2019,07,08,06,35,13.00
2019,07,08,06,36,13.00
2019,07,08,06,37,13.00
2019,07,08,06,38,13.00
2019,07,08,06,39,13.00
2019,07,08,06,40,13.00
2019,07,08,06,41,13.00
2019,07,08,06,42,12.90
2019,07,08,06,43,12.90
2019,07,08,06,44,12.90
2019,07,08,06,45,12.90
2019,07,08,06,46,12.90
2019,07,08,06,47,12.90
2019,07,08,06,48,12.80
2019,07,08,06,49,12.90
2019,07,08,06,50,12.80
2019,07,08,06,51,12.80
2019,07,08,06,52,12.80
2019,07,08,06,53,12.80
2019,07,08,06,54,12.80
2019,07,08,06,55,12.80
2019,07,08,06,56,12.80
2019,07,08,06,57,12.80
2019,07,08,06,58,12.80
2019,07,08,06,59,12.80
2019,07,08,07,00,12.80
2019,07,08,07,01,12.80
2019,07,08,07,02,12.90
2019,07,08,07,03,12.90
2019,07,08,07,04,12.90
2019,07,08,07,05,12.90
2019,07,08,07,06,12.90
2019,07,08,07,07,12.90
2019,07,08,07,08,12.90
2019,07,08,07,09,12.90
2019,07,08,07,10,12.90
2019,07,08,07,11,12.90
2019,07,08,07,12,12.90
2019,07,08,07,13,12.90
2019,07,08,07,14,12.90
2019,07,08,07,15,12.90
2019,07,08,07,16,12.90
2019,07,08,07,17,13.00
2019,07,08,07,18,13.00
2019,07,08,07,19,13.00
2019,07,08,07,20,13.00
2019,07,08,07,21,13.00
2019,07,08,07,22,13.10
2019,07,08,07,23,13.10
2019,07,08,07,24,13.10
2019,07,08,07,25,13.10
2019,07,08,07,26,13.10
2019,07,08,07,27,13.10
2019,07,08,07,28,13.10
2019,07,08,07,29,13.10
2019,07,08,07,30,13.10
2019,07,08,07,31,13.10
2019,07,08,07,32,13.10
2019,07,08,07,33,13.20
2019,07,08,07,34,13.20
2019,07,08,07,35,13.20
2019,07,08,07,36,13.20
2019,07,08,07,37,13.20
2019,07,08,07,38,13.20
2019,07,08,07,39,13.20
2019,07,08,07,40,13.30
2019,07,08,07,41,13.30
2019,07,08,07,42,13.30
2019,07,08,07,43,13.30
2019,07,08,07,44,13.30
2019,07,08,07,45,13.40
2019,07,08,07,46,13.40
2019,07,08,07,47,13.40
2019,07,08,07,48,13.40
2019,07,08,07,49,13.40
2019,07,08,07,50,13.40
2019,07,08,07,51,13.40
2019,07,08,07,52,13.40
2019,07,08,07,53,13.40
2019,07,08,07,54,13.40
2019,07,08,07,55,13.40
2019,07,08,07,56,13.40
2019,07,08,07,57,13.40
2019,07,08,07,58,13.40
2019,07,08,07,59,13.40
2019,07,08,08,00,13.40
2019,07,08,08,01,13.40
2019,07,08,08,02,13.40
2019,07,08,08,03,13.40
2019,07,08,08,04,13.50
2019,07,08,08,05,13.50
2019,07,08,08,06,13.50
2019,07,08,08,07,13.60
2019,07,08,08,08,13.60
2019,07,08,08,09,13.60
2019,07,08,08,10,13.60
2019,07,08,08,11,13.60
2019,07,08,08,12,13.60
2019,07,08,08,13,13.60
2019,07,08,08,14,13.60
2019,07,08,08,15,13.70
2019,07,08,08,16,13.70
2019,07,08,08,17,13.70
2019,07,08,08,18,13.80
2019,07,08,08,19,13.80
2019,07,08,08,20,13.80
2019,07,08,08,21,13.90
2019,07,08,08,22,13.90
2019,07,08,08,23,13.90
2019,07,08,08,24,14.00
2019,07,08,08,25,14.00
2019,07,08,08,26,14.00
2019,07,08,08,27,14.10
2019,07,08,08,28,14.20
2019,07,08,08,29,14.20
2019,07,08,08,30,14.30
2019,07,08,08,31,14.30
2019,07,08,08,32,14.40
2019,07,08,08,33,14.40
2019,07,08,08,34,14.50
2019,07,08,08,35,14.60
2019,07,08,08,36,14.60
2019,07,08,08,37,14.70
2019,07,08,08,38,14.70
2019,07,08,08,39,14.70
2019,07,08,08,40,14.70
2019,07,08,08,41,14.70
2019,07,08,08,42,14.70
2019,07,08,08,43,14.70
2019,07,08,08,44,14.70
2019,07,08,08,45,14.80
2019,07,08,08,46,14.80
2019,07,08,08,47,14.80
2019,07,08,08,48,14.80
2019,07,08,08,49,14.80
2019,07,08,08,50,14.80
2019,07,08,08,51,14.80
2019,07,08,08,52,14.80
2019,07,08,08,53,14.80
2019,07,08,08,54,14.80
2019,07,08,08,55,14.90
2019,07,08,08,56,14.90
2019,07,08,08,57,14.90
2019,07,08,08,58,14.90
2019,07,08,08,59,14.90
2019,07,08,09,00,15.00
2019,07,08,09,01,15.00
2019,07,08,09,02,15.00
2019,07,08,09,03,15.00
2019,07,08,09,04,15.00
2019,07,08,09,05,15.10
2019,07,08,09,06,15.10
2019,07,08,09,07,15.10
2019,07,08,09,08,15.10
2019,07,08,09,09,15.20
2019,07,08,09,10,15.20
2019,07,08,09,11,15.20
2019,07,08,09,12,15.20
2019,07,08,09,13,15.20
2019,07,08,09,14,15.20
2019,07,08,09,15,15.20
2019,07,08,09,16,15.20
2019,07,08,09,17,15.20
2019,07,08,09,18,15.20
2019,07,08,09,19,15.20
2019,07,08,09,20,15.20
2019,07,08,09,21,15.30
2019,07,08,09,22,15.30
2019,07,08,09,23,15.30
2019,07,08,09,24,15.30
2019,07,08,09,25,15.30
2019,07,08,09,26,15.30
2019,07,08,09,27,15.30
2019,07,08,09,28,15.30
2019,07,08,09,29,15.30
2019,07,08,09,30,15.40
2019,07,08,09,31,15.40
2019,07,08,09,32,15.40
2019,07,08,09,33,15.40
2019,07,08,09,34,15.40
2019,07,08,09,35,15.40
2019,07,08,09,36,15.40
2019,07,08,09,37,15.50
2019,07,08,09,38,15.50
2019,07,08,09,39,15.50
2019,07,08,09,40,15.50
2019,07,08,09,41,15.50
2019,07,08,09,42,15.50
2019,07,08,09,43,15.50
2019,07,08,09,44,15.60
2019,07,08,09,45,15.60
2019,07,08,09,46,15.60
2019,07,08,09,47,15.60
2019,07,08,09,48,15.70
2019,07,08,09,49,15.70
2019,07,08,09,50,15.70
2019,07,08,09,51,15.70
2019,07,08,09,52,15.70
2019,07,08,09,53,15.70
2019,07,08,09,54,15.70
2019,07,08,09,55,15.70
2019,07,08,09,56,15.80
2019,07,08,09,57,15.80
2019,07,08,09,58,15.80
2019,07,08,09,59,15.90
2019,07,08,10,00,15.90
2019,07,08,10,01,15.90
2019,07,08,10,02,16.00
2019,07,08,10,03,16.00
2019,07,08,10,04,16.10
2019,07,08,10,05,16.10
2019,07,08,10,06,16.10
2019,07,08,10,07,16.20
2019,07,08,10,08,16.20
2019,07,08,10,09,16.30
2019,07,08,10,10,16.30
2019,07,08,10,11,16.30
2019,07,08,10,12,16.30
2019,07,08,10,13,16.30
2019,07,08,10,14,16.40
2019,07,08,10,15,16.40
2019,07,08,10,16,16.40
2019,07,08,10,17,16.40
2019,07,08,10,18,16.50
2019,07,08,10,19,16.50
2019,07,08,10,20,16.50
2019,07,08,10,21,16.60
2019,07,08,10,22,16.60
2019,07,08,10,23,16.60
2019,07,08,10,24,16.60
2019,07,08,10,25,16.60
2019,07,08,10,26,16.70
2019,07,08,10,27,16.70
2019,07,08,10,28,16.70
2019,07,08,10,29,16.70
2019,07,08,10,30,16.70
2019,07,08,10,31,16.80
2019,07,08,10,32,16.80
2019,07,08,10,33,16.80
2019,07,08,10,34,16.90
2019,07,08,10,35,16.90
2019,07,08,10,36,16.90
2019,07,08,10,37,16.90
2019,07,08,10,38,16.90
2019,07,08,10,39,16.90
2019,07,08,10,40,17.00
2019,07,08,10,41,17.00
2019,07,08,10,42,17.00
2019,07,08,10,43,17.10
2019,07,08,10,44,17.10
2019,07,08,10,45,17.10
2019,07,08,10,46,17.10
2019,07,08,10,47,17.10
2019,07,08,10,48,17.20
2019,07,08,10,49,17.20
2019,07,08,10,50,17.20
2019,07,08,10,51,17.20
2019,07,08,10,52,17.30
2019,07,08,10,53,17.30
2019,07,08,10,54,17.20
2019,07,08,10,55,17.10
2019,07,08,10,56,17.10
2019,07,08,10,57,17.00
2019,07,08,10,58,16.90
2019,07,08,10,59,16.90
2019,07,08,11,00,16.90
2019,07,08,11,01,16.90
2019,07,08,11,02,16.90
2019,07,08,11,03,16.80
2019,07,08,11,04,16.80
2019,07,08,11,05,16.80
2019,07,08,11,06,16.70
2019,07,08,11,07,16.70
2019,07,08,11,08,16.60
2019,07,08,11,09,16.60
2019,07,08,11,10,16.50
2019,07,08,11,11,16.50
2019,07,08,11,12,16.50
2019,07,08,11,13,16.40
2019,07,08,11,14,16.40
2019,07,08,11,15,16.40
2019,07,08,11,16,16.40
2019,07,08,11,17,16.40
2019,07,08,11,18,16.40
2019,07,08,11,19,16.40
2019,07,08,11,20,16.40
2019,07,08,11,21,16.40
2019,07,08,11,22,16.40
2019,07,08,11,23,16.40
2019,07,08,11,24,16.40
2019,07,08,11,25,16.40
2019,07,08,11,26,16.40
2019,07,08,11,27,16.40
2019,07,08,11,28,16.40
2019,07,08,11,29,16.30
2019,07,08,11,30,16.30
2019,07,08,11,31,16.30
2019,07,08,11,32,16.30
2019,07,08,11,33,16.20
2019,07,08,11,34,16.20
2019,07,08,11,35,16.20
2019,07,08,11,36,16.20
2019,07,08,11,37,16.20
2019,07,08,11,38,16.20
2019,07,08,11,39,16.20
2019,07,08,11,40,16.20
2019,07,08,11,41,16.20
2019,07,08,11,42,16.20
2019,07,08,11,43,16.20
2019,07,08,11,44,16.20
2019,07,08,11,45,16.20
2019,07,08,11,46,16.20
2019,07,08,11,47,16.20
2019,07,08,11,48,16.20
2019,07,08,11,49,16.20
2019,07,08,11,50,16.30
2019,07,08,11,51,16.30
2019,07,08,11,52,16.30
2019,07,08,11,53,16.30
2019,07,08,11,54,16.30
2019,07,08,11,55,16.30
2019,07,08,11,56,16.30
2019,07,08,11,57,16.30
2019,07,08,11,58,16.30
2019,07,08,11,59,16.30
2019,07,08,12,04,16.40
2019,07,08,12,05,16.40
2019,07,08,12,06,16.40
2019,07,08,12,07,16.40
2019,07,08,12,08,16.40
2019,07,08,12,09,16.40
2019,07,08,12,10,16.40
2019,07,08,12,11,16.40
2019,07,08,12,12,16.40
2019,07,08,12,13,16.40
2019,07,08,12,14,16.40
2019,07,08,12,15,16.40
2019,07,08,12,16,16.40
2019,07,08,12,17,16.30
2019,07,08,12,18,16.30
2019,07,08,12,19,16.30
2019,07,08,12,20,16.30
2019,07,08,12,21,16.30
2019,07,08,12,22,16.30
2019,07,08,12,23,16.30
2019,07,08,12,24,16.40
2019,07,08,12,25,16.40
2019,07,08,12,26,16.40
2019,07,08,12,27,16.50
2019,07,08,12,28,16.50
2019,07,08,12,29,16.40
2019,07,08,12,30,16.40
2019,07,08,12,31,16.40
2019,07,08,12,32,16.30
2019,07,08,12,33,16.30
2019,07,08,12,34,16.30
2019,07,08,12,35,16.30
2019,07,08,12,36,16.30
2019,07,08,12,37,16.30
2019,07,08,12,38,16.30
2019,07,08,12,39,16.30
2019,07,08,12,40,16.20
2019,07,08,12,41,16.20
2019,07,08,12,42,16.20
2019,07,08,12,43,16.20
2019,07,08,12,44,16.20
2019,07,08,12,45,16.20
2019,07,08,12,46,16.20
2019,07,08,12,47,16.20
2019,07,08,12,48,16.20
2019,07,08,12,49,16.20
2019,07,08,12,50,16.20
2019,07,08,12,51,16.20
2019,07,08,12,52,16.20
2019,07,08,12,53,16.20
2019,07,08,12,54,16.20
2019,07,08,12,55,16.20
2019,07,08,12,56,16.20
2019,07,08,12,57,16.30
2019,07,08,12,58,16.30
2019,07,08,12,59,16.30
2019,07,08,13,00,16.30
2019,07,08,13,01,16.30
2019,07,08,13,02,16.30
2019,07,08,13,03,16.30
2019,07,08,13,04,16.30
2019,07,08,13,05,16.30
2019,07,08,13,06,16.40
2019,07,08,13,07,16.40
2019,07,08,13,08,16.40
2019,07,08,13,09,16.40
2019,07,08,13,10,16.40
2019,07,08,13,11,16.40
2019,07,08,13,12,16.40
2019,07,08,13,13,16.40
2019,07,08,13,14,16.40
2019,07,08,13,15,16.40
2019,07,08,13,16,16.40
2019,07,08,13,17,16.40
2019,07,08,13,18,16.30
2019,07,08,13,19,16.40
2019,07,08,13,20,16.40
2019,07,08,13,21,16.40
2019,07,08,13,22,16.40
2019,07,08,13,23,16.50
2019,07,08,13,24,16.50
2019,07,08,13,25,16.60
2019,07,08,13,26,16.60
2019,07,08,13,27,16.60
2019,07,08,13,28,16.70
2019,07,08,13,29,16.70
2019,07,08,13,30,16.70
2019,07,08,13,31,16.70
2019,07,08,13,32,16.70
2019,07,08,13,33,16.70
2019,07,08,13,34,16.70
2019,07,08,13,35,16.70
2019,07,08,13,36,16.80
2019,07,08,13,37,16.80
2019,07,08,13,38,16.80
2019,07,08,13,39,16.80
2019,07,08,13,40,16.80
2019,07,08,13,41,16.80
2019,07,08,13,42,16.80
2019,07,08,13,43,16.90
2019,07,08,13,44,16.90
2019,07,08,13,45,16.90
2019,07,08,13,46,16.90
2019,07,08,13,47,17.00
2019,07,08,13,48,17.00
2019,07,08,13,49,17.00
2019,07,08,13,50,17.10
2019,07,08,13,51,17.10
2019,07,08,13,52,17.20
2019,07,08,13,53,17.20
2019,07,08,13,54,17.20
2019,07,08,13,55,17.20
2019,07,08,13,56,17.20
2019,07,08,13,57,17.30
2019,07,08,13,58,17.30
2019,07,08,13,59,17.30
2019,07,08,14,00,17.30
2019,07,08,14,01,17.30
2019,07,08,14,02,17.30
2019,07,08,14,03,17.30
2019,07,08,14,04,17.30
2019,07,08,14,05,17.30
2019,07,08,14,06,17.30
2019,07,08,14,07,17.30
2019,07,08,14,08,17.30
2019,07,08,14,09,17.30
2019,07,08,14,10,17.30
2019,07,08,14,11,17.30
2019,07,08,14,12,17.30
2019,07,08,14,13,17.30
2019,07,08,14,14,17.40
2019,07,08,14,15,17.40
2019,07,08,14,16,17.50
2019,07,08,14,17,17.50
2019,07,08,14,18,17.60
2019,07,08,14,19,17.60
2019,07,08,14,20,17.60
2019,07,08,14,21,17.60
2019,07,08,14,22,17.60
2019,07,08,14,23,17.70
2019,07,08,14,24,17.70
2019,07,08,14,25,17.70
2019,07,08,14,26,17.70
2019,07,08,14,27,17.70
2019,07,08,14,28,17.60
2019,07,08,14,29,17.60
2019,07,08,14,30,17.50
2019,07,08,14,31,17.50
2019,07,08,14,32,17.40
2019,07,08,14,33,17.40
2019,07,08,14,34,17.40
2019,07,08,14,35,17.40
2019,07,08,14,36,17.40
2019,07,08,14,37,17.40
2019,07,08,14,38,17.40
2019,07,08,14,39,17.30
2019,07,08,14,40,17.30
2019,07,08,14,41,17.30
2019,07,08,14,42,17.40
2019,07,08,14,43,17.40
2019,07,08,14,44,17.40
2019,07,08,14,45,17.40
2019,07,08,14,46,17.40
2019,07,08,14,47,17.40
2019,07,08,14,48,17.40
2019,07,08,14,49,17.40
2019,07,08,14,50,17.30
2019,07,08,14,51,17.30
2019,07,08,14,52,17.30
2019,07,08,14,53,17.30
2019,07,08,14,54,17.30
2019,07,08,14,55,17.30
2019,07,08,14,56,17.40
2019,07,08,14,57,17.40
2019,07,08,14,58,17.40
2019,07,08,14,59,17.50
2019,07,08,15,00,17.50
2019,07,08,15,01,17.60
2019,07,08,15,02,17.70
2019,07,08,15,03,17.70
2019,07,08,15,04,17.80
2019,07,08,15,05,17.80
2019,07,08,15,06,17.80
2019,07,08,15,07,17.90
2019,07,08,15,08,17.90
2019,07,08,15,09,18.00
2019,07,08,15,10,18.10
2019,07,08,15,11,18.10
2019,07,08,15,12,18.10
2019,07,08,15,13,18.20
2019,07,08,15,14,18.20
2019,07,08,15,15,18.10
2019,07,08,15,16,18.10
2019,07,08,15,17,18.00
2019,07,08,15,18,18.00
2019,07,08,15,19,17.90
2019,07,08,15,20,17.90
2019,07,08,15,21,17.80
2019,07,08,15,22,17.80
2019,07,08,15,23,17.80
2019,07,08,15,24,17.70
2019,07,08,15,25,17.70
2019,07,08,15,26,17.70
2019,07,08,15,27,17.70
2019,07,08,15,28,17.70
2019,07,08,15,29,17.70
2019,07,08,15,30,17.70
2019,07,08,15,31,17.70
2019,07,08,15,32,17.70
2019,07,08,15,33,17.70
2019,07,08,15,34,17.70
2019,07,08,15,35,17.70
2019,07,08,15,36,17.70
2019,07,08,15,37,17.70
2019,07,08,15,38,17.70
2019,07,08,15,39,17.70
2019,07,08,15,40,17.70
2019,07,08,15,41,17.70
2019,07,08,15,42,17.70
2019,07,08,15,43,17.60
2019,07,08,15,44,17.60
2019,07,08,15,45,17.50
2019,07,08,15,46,17.50
2019,07,08,15,47,17.40
2019,07,08,15,48,17.30
2019,07,08,15,49,17.20
2019,07,08,15,50,17.20
2019,07,08,15,51,17.20
2019,07,08,15,52,17.10
2019,07,08,15,53,17.10
2019,07,08,15,54,17.10
2019,07,08,15,55,17.10
2019,07,08,15,56,17.20
2019,07,08,15,57,17.20
2019,07,08,15,58,17.20
2019,07,08,15,59,17.30
2019,07,08,16,00,17.30
2019,07,08,16,01,17.30
2019,07,08,16,02,17.40
2019,07,08,16,03,17.40
2019,07,08,16,04,17.40
2019,07,08,16,05,17.40
2019,07,08,16,06,17.40
2019,07,08,16,07,17.40
2019,07,08,16,08,17.40
2019,07,08,16,09,17.40
2019,07,08,16,10,17.40
2019,07,08,16,11,17.40
2019,07,08,16,12,17.40
2019,07,08,16,13,17.30
2019,07,08,16,14,17.30
2019,07,08,16,15,17.20
2019,07,08,16,16,17.20
2019,07,08,16,17,17.20
2019,07,08,16,18,17.10
2019,07,08,16,19,17.20
2019,07,08,16,20,17.20
2019,07,08,16,21,17.20
2019,07,08,16,22,17.20
2019,07,08,16,23,17.20
2019,07,08,16,24,17.30
2019,07,08,16,25,17.30
2019,07,08,16,26,17.40
2019,07,08,16,27,17.40
2019,07,08,16,28,17.40
2019,07,08,16,29,17.50
2019,07,08,16,30,17.60
2019,07,08,16,31,17.60
2019,07,08,16,32,17.60
2019,07,08,16,33,17.70
2019,07,08,16,34,17.70
2019,07,08,16,35,17.80
2019,07,08,16,36,17.80
2019,07,08,16,37,17.90
2019,07,08,16,38,17.90
2019,07,08,16,39,18.00
2019,07,08,16,40,18.00
2019,07,08,16,41,18.10
2019,07,08,16,42,18.10
2019,07,08,16,43,18.10
2019,07,08,16,44,18.10
2019,07,08,16,45,18.10
2019,07,08,16,46,18.10
2019,07,08,16,47,18.10
2019,07,08,16,48,18.10
2019,07,08,16,49,18.10
2019,07,08,16,50,18.10
2019,07,08,16,51,18.10
2019,07,08,16,52,18.10
2019,07,08,16,53,18.10
2019,07,08,16,54,18.10
2019,07,08,16,55,18.10
2019,07,08,16,56,18.10
2019,07,08,16,57,18.10
2019,07,08,16,58,18.10
2019,07,08,16,59,18.00
2019,07,08,17,00,18.00
2019,07,08,17,01,18.00
2019,07,08,17,02,18.00
2019,07,08,17,03,18.10
2019,07,08,17,04,18.10
2019,07,08,17,05,18.10
2019,07,08,17,06,18.10
2019,07,08,17,07,18.20
2019,07,08,17,08,18.20
2019,07,08,17,09,18.20
2019,07,08,17,10,18.20
2019,07,08,17,11,18.20
2019,07,08,17,12,18.20
2019,07,08,17,13,18.20
2019,07,08,17,14,18.20
2019,07,08,17,15,18.30
2019,07,08,17,16,18.20
2019,07,08,17,17,18.30
2019,07,08,17,18,18.30
2019,07,08,17,19,18.30
2019,07,08,17,20,18.30
2019,07,08,17,21,18.30
2019,07,08,17,22,18.30
2019,07,08,17,23,18.30